Time,TemperatureF,DewpointF,PressureIn,WindDirection,WindDirectionDegrees,WindSpeedMPH,WindSpeedGustMPH,Humidity,HourlyPrecipIn,Conditions,Clouds,dailyrainin,SoftwareType,DateUTC
2013-03-29 00:04:00,55.5,38.6,29.96,NNE,23,0.0,0.0,53,0.00,,,0.00,WUHU216HW,2013-03-28 23:04:00,
2013-03-29 00:09:00,55.4,38.4,29.96,NNE,23,0.0,0.0,53,0.00,,,0.00,WUHU216HW,2013-03-28 23:09:00,
2013-03-29 00:14:00,55.2,38.2,29.96,East,90,0.0,0.0,53,0.00,,,0.00,WUHU216HW,2013-03-28 23:14:00,
2013-03-29 00:19:00,55.2,38.2,29.96,East,90,1.3,1.3,53,0.00,,,0.00,WUHU216HW,2013-03-28 23:19:00,
2013-03-29 00:24:00,55.0,37.1,29.96,ENE,68,2.2,2.2,51,0.00,,,0.00,WUHU216HW,2013-03-28 23:24:00,
2013-03-29 00:29:00,55.2,36.8,29.96,East,90,1.7,2.2,50,0.00,,,0.00,WUHU216HW,2013-03-28 23:29:00,
2013-03-29 00:34:00,55.0,36.7,29.96,SE,135,0.0,1.7,50,0.00,,,0.00,WUHU216HW,2013-03-28 23:34:00,
2013-03-29 00:39:00,55.0,37.1,29.96,ESE,113,0.0,0.8,51,0.00,,,0.00,WUHU216HW,2013-03-28 23:39:00,
2013-03-29 00:44:00,55.0,37.1,29.96,ENE,68,0.0,0.8,51,0.00,,,0.00,WUHU216HW,2013-03-28 23:44:00,
2013-03-29 00:49:00,55.0,37.1,29.96,East,90,0.6,0.6,51,0.00,,,0.00,WUHU216HW,2013-03-28 23:49:00,
2013-03-29 00:54:00,55.0,36.7,29.96,ENE,68,0.6,1.5,50,0.00,,,0.00,WUHU216HW,2013-03-28 23:54:00,
2013-03-29 00:59:00,54.8,36.5,29.96,NE,45,0.0,1.5,50,0.00,,,0.00,WUHU216HW,2013-03-28 23:59:00,
2013-03-29 01:04:00,54.8,36.5,29.96,ENE,68,0.0,0.0,50,0.00,,,0.00,WUHU216HW,2013-03-29 00:04:00,
2013-03-29 01:09:00,54.8,35.8,29.96,ENE,68,0.0,0.0,49,0.00,,,0.00,WUHU216HW,2013-03-29 00:09:00,
2013-03-29 01:14:00,54.6,35.8,29.96,ENE,68,0.0,0.0,49,0.00,,,0.00,WUHU216HW,2013-03-29 00:14:00,
2013-03-29 01:19:00,54.6,35.8,29.96,NNE,23,0.0,0.0,49,0.00,,,0.00,WUHU216HW,2013-03-29 00:19:00,
2013-03-29 01:24:00,54.5,35.1,29.96,NNE,23,0.0,0.0,48,0.00,,,0.00,WUHU216HW,2013-03-29 00:24:00,
2013-03-29 01:29:00,54.5,35.1,29.96,ENE,68,0.0,0.0,48,0.00,,,0.00,WUHU216HW,2013-03-29 00:29:00,
2013-03-29 01:34:00,54.3,34.5,29.96,ESE,113,0.0,0.6,47,0.00,,,0.00,WUHU216HW,2013-03-29 00:34:00,
2013-03-29 01:39:00,54.5,33.9,29.96,ESE,113,0.0,0.6,46,0.00,,,0.00,WUHU216HW,2013-03-29 00:39:00,
2013-03-29 01:44:00,54.5,33.9,29.96,ESE,113,0.0,0.0,46,0.00,,,0.00,WUHU216HW,2013-03-29 00:44:00,
2013-03-29 01:49:00,54.6,33.9,29.96,East,90,0.0,0.0,46,0.00,,,0.00,WUHU216HW,2013-03-29 00:49:00,
2013-03-29 01:54:00,54.6,33.6,29.96,ESE,113,0.0,0.0,45,0.00,,,0.00,WUHU216HW,2013-03-29 00:54:00,
2013-03-29 01:59:00,54.6,33.6,29.96,East,90,0.0,0.0,45,0.00,,,0.00,WUHU216HW,2013-03-29 00:59:00,
2013-03-29 02:04:00,54.6,34.1,29.96,NNE,23,0.0,0.0,46,0.00,,,0.00,WUHU216HW,2013-03-29 01:04:00,
2013-03-29 02:09:00,54.5,33.4,29.96,North,0,0.0,0.0,45,0.02,,,0.02,WUHU216HW,2013-03-29 01:09:00,
2013-03-29 02:14:00,54.3,33.2,29.96,North,0,0.0,0.0,45,0.02,,,0.02,WUHU216HW,2013-03-29 01:14:00,
2013-03-29 02:19:00,54.3,33.2,29.96,SE,135,0.0,0.0,45,0.02,,,0.02,WUHU216HW,2013-03-29 01:19:00,
2013-03-29 02:25:00,54.3,32.7,29.96,North,0,0.0,0.0,44,0.02,,,0.02,WUHU216HW,2013-03-29 01:25:00,
2013-03-29 02:30:00,54.5,32.3,29.96,ENE,68,2.2,2.2,42,0.02,,,0.02,WUHU216HW,2013-03-29 01:30:00,
2013-03-29 02:35:00,54.5,31.2,29.95,NE,45,3.1,3.1,41,0.02,,,0.02,WUHU216HW,2013-03-29 01:35:00,
2013-03-29 02:40:00,54.6,31.3,29.94,East,90,2.6,3.1,41,0.04,,,0.04,WUHU216HW,2013-03-29 01:40:00,
2013-03-29 02:45:00,54.8,31.5,29.94,NW,315,0.6,2.6,41,0.04,,,0.04,WUHU216HW,2013-03-29 01:45:00,
2013-03-29 02:50:00,55.0,31.6,29.94,South,180,1.5,2.2,41,0.04,,,0.04,WUHU216HW,2013-03-29 01:50:00,
2013-03-29 02:55:00,55.0,32.2,29.94,SSW,203,2.4,3.5,42,0.04,,,0.04,WUHU216HW,2013-03-29 01:55:00,
2013-03-29 03:00:00,55.0,32.8,29.94,SW,231,1.8,3.5,43,0.04,,,0.04,WUHU216HW,2013-03-29 02:00:00,
2013-03-29 03:05:00,54.8,32.6,29.94,SW,225,0.0,3.1,43,0.04,,,0.04,WUHU216HW,2013-03-29 02:05:00,
2013-03-29 03:10:00,54.6,32.4,29.94,WSW,248,2.4,3.1,43,0.02,,,0.04,WUHU216HW,2013-03-29 02:10:00,
2013-03-29 03:15:00,54.6,32.4,29.94,SW,225,0.8,2.4,43,0.02,,,0.04,WUHU216HW,2013-03-29 02:15:00,
2013-03-29 03:20:00,54.5,32.3,29.94,WSW,248,0.8,2.4,43,0.02,,,0.04,WUHU216HW,2013-03-29 02:20:00,
2013-03-29 03:25:00,54.5,31.7,29.94,SW,233,1.5,2.4,42,0.02,,,0.04,WUHU216HW,2013-03-29 02:25:00,
2013-03-29 03:30:00,54.3,31.6,29.93,SSW,203,1.5,2.4,42,0.02,,,0.04,WUHU216HW,2013-03-29 02:30:00,
2013-03-29 03:35:00,54.3,31.6,29.93,North,0,0.0,2.2,42,0.02,,,0.04,WUHU216HW,2013-03-29 02:35:00,
2013-03-29 03:40:00,54.3,30.4,29.94,North,0,0.8,1.5,40,0.00,,,0.04,WUHU216HW,2013-03-29 02:40:00,
2013-03-29 03:45:00,54.3,30.4,29.93,NE,45,1.7,2.0,40,0.00,,,0.04,WUHU216HW,2013-03-29 02:45:00,
2013-03-29 03:50:00,54.3,29.7,29.93,NE,45,1.7,2.0,40,0.00,,,0.04,WUHU216HW,2013-03-29 02:50:00,
2013-03-29 03:55:00,54.1,28.9,29.93,ENE,57,3.2,3.3,38,0.00,,,0.04,WUHU216HW,2013-03-29 02:55:00,
2013-03-29 04:00:00,54.1,28.9,29.93,NE,45,1.7,3.3,38,0.00,,,0.04,WUHU216HW,2013-03-29 03:00:00,
2013-03-29 04:05:00,54.1,28.9,29.93,NNE,23,0.6,3.1,38,0.00,,,0.04,WUHU216HW,2013-03-29 03:05:00,
2013-03-29 04:10:00,54.1,28.9,29.94,North,0,0.8,1.7,38,0.00,,,0.04,WUHU216HW,2013-03-29 03:10:00,
2013-03-29 04:15:00,54.1,28.9,29.93,NE,45,0.0,1.5,38,0.00,,,0.04,WUHU216HW,2013-03-29 03:15:00,
2013-03-29 04:20:00,54.1,28.9,29.93,ENE,68,0.0,1.1,38,0.00,,,0.04,WUHU216HW,2013-03-29 03:20:00,
2013-03-29 04:25:00,54.1,28.9,29.93,North,0,0.0,1.1,38,0.00,,,0.04,WUHU216HW,2013-03-29 03:25:00,
2013-03-29 04:30:00,53.9,28.7,29.94,North,0,0.0,0.0,38,0.00,,,0.04,WUHU216HW,2013-03-29 03:30:00,
2013-03-29 04:35:00,53.9,28.7,29.94,WNW,293,0.0,0.0,38,0.00,,,0.04,WUHU216HW,2013-03-29 03:35:00,
2013-03-29 04:40:00,53.9,28.7,29.94,SW,225,3.5,3.5,38,0.00,,,0.04,WUHU216HW,2013-03-29 03:40:00,
2013-03-29 04:45:00,54.1,28.9,29.94,West,270,1.3,3.5,38,0.00,,,0.04,WUHU216HW,2013-03-29 03:45:00,
2013-03-29 04:50:00,53.9,28.7,29.94,West,270,0.0,2.6,38,0.00,,,0.04,WUHU216HW,2013-03-29 03:50:00,
2013-03-29 04:55:00,53.7,28.6,29.94,West,270,0.0,0.0,38,0.00,,,0.04,WUHU216HW,2013-03-29 03:55:00,
2013-03-29 05:00:00,53.7,28.6,29.94,North,0,0.0,0.0,38,0.00,,,0.04,WUHU216HW,2013-03-29 04:00:00,
2013-03-29 05:05:00,53.7,28.6,29.94,NNW,338,0.0,0.0,38,0.00,,,0.04,WUHU216HW,2013-03-29 04:05:00,
2013-03-29 05:10:00,53.6,29.1,29.93,NNW,338,0.0,0.0,39,0.00,,,0.04,WUHU216HW,2013-03-29 04:10:00,
2013-03-29 05:15:00,53.4,28.9,29.93,North,0,0.0,0.0,39,0.00,,,0.04,WUHU216HW,2013-03-29 04:15:00,
2013-03-29 05:20:00,53.2,28.8,29.93,NE,45,0.0,0.0,39,0.00,,,0.04,WUHU216HW,2013-03-29 04:20:00,
2013-03-29 05:25:00,52.8,28.5,29.93,North,9,1.9,2.2,39,0.00,,,0.04,WUHU216HW,2013-03-29 04:25:00,
2013-03-29 05:30:00,52.7,28.3,29.94,NE,45,1.5,2.2,39,0.00,,,0.04,WUHU216HW,2013-03-29 04:30:00,
2013-03-29 05:35:00,52.3,28.0,29.94,ESE,113,1.5,2.4,39,0.00,,,0.04,WUHU216HW,2013-03-29 04:35:00,
2013-03-29 05:40:00,52.3,28.0,29.94,ESE,113,0.8,2.4,39,0.00,,,0.04,WUHU216HW,2013-03-29 04:40:00,
2013-03-29 05:45:00,52.3,28.0,29.94,SE,135,1.5,2.4,39,0.00,,,0.04,WUHU216HW,2013-03-29 04:45:00,
2013-03-29 05:50:00,52.5,28.1,29.94,ESE,113,0.0,1.5,39,0.00,,,0.04,WUHU216HW,2013-03-29 04:50:00,
2013-03-29 05:55:00,52.5,27.5,29.94,SE,135,0.8,0.8,38,0.00,,,0.04,WUHU216HW,2013-03-29 04:55:00,
2013-03-29 06:00:00,52.7,28.3,29.94,East,90,1.1,1.3,39,0.00,,,0.04,WUHU216HW,2013-03-29 05:00:00,
2013-03-29 06:05:00,52.3,28.0,29.94,SE,135,1.3,2.0,39,0.00,,,0.04,WUHU216HW,2013-03-29 05:05:00,
2013-03-29 06:10:00,52.3,28.0,29.94,North,0,0.0,2.0,39,0.00,,,0.04,WUHU216HW,2013-03-29 05:10:00,
2013-03-29 06:15:00,52.5,28.1,29.94,NE,45,1.3,1.3,39,0.00,,,0.04,WUHU216HW,2013-03-29 05:15:00,
2013-03-29 06:21:00,52.5,28.0,29.94,East,90,0.0,1.3,39,0.00,,,0.04,WUHU216HW,2013-03-29 05:21:00,
2013-03-29 06:26:00,52.5,28.0,29.94,WSW,248,0.0,0.0,39,0.00,,,0.04,WUHU216HW,2013-03-29 05:26:00,
2013-03-29 06:31:00,52.3,28.7,29.94,WSW,248,0.0,0.0,40,0.00,,,0.04,WUHU216HW,2013-03-29 05:31:00,
2013-03-29 06:36:00,52.3,28.7,29.94,South,180,0.0,0.0,40,0.00,,,0.04,WUHU216HW,2013-03-29 05:36:00,
2013-03-29 06:41:00,52.8,28.5,29.94,NE,45,0.0,0.0,39,0.00,,,0.04,WUHU216HW,2013-03-29 05:41:00,
2013-03-29 06:46:00,52.8,29.1,29.94,NNE,23,1.1,1.1,40,0.00,,,0.04,WUHU216HW,2013-03-29 05:46:00,
2013-03-29 06:51:00,53.4,30.2,29.94,NNW,338,0.0,1.1,41,0.00,,,0.04,WUHU216HW,2013-03-29 05:51:00,
2013-03-29 06:56:00,53.6,30.3,29.94,NNW,338,0.0,0.0,41,0.00,,,0.04,WUHU216HW,2013-03-29 05:56:00,
2013-03-29 07:01:00,54.8,32.0,29.94,NNW,338,0.0,0.0,42,0.00,,,0.04,WUHU216HW,2013-03-29 06:01:00,
2013-03-29 07:06:00,54.6,34.1,29.94,NW,315,0.0,0.0,46,0.00,,,0.04,WUHU216HW,2013-03-29 06:06:00,
2013-03-29 07:11:00,54.5,35.6,29.94,NNW,338,0.0,0.0,49,0.00,,,0.04,WUHU216HW,2013-03-29 06:11:00,
2013-03-29 07:16:00,55.5,35.7,29.94,SE,135,0.0,1.1,47,0.00,,,0.04,WUHU216HW,2013-03-29 06:16:00,
2013-03-29 07:21:00,57.3,40.4,29.94,SE,135,0.0,1.1,53,0.00,,,0.04,WUHU216HW,2013-03-29 06:21:00,
2013-03-29 07:26:00,58.6,44.8,29.94,SSE,158,0.0,0.8,60,0.00,,,0.04,WUHU216HW,2013-03-29 06:26:00,
2013-03-29 07:32:00,58.1,47.7,29.94,North,0,0.0,0.0,68,0.00,,,0.04,WUHU216HW,2013-03-29 06:32:00,
2013-03-29 07:37:00,58.6,47.6,29.93,South,180,0.0,1.1,67,0.00,,,0.04,WUHU216HW,2013-03-29 06:37:00,
2013-03-29 07:42:00,58.8,49.1,29.93,SW,225,0.0,1.1,70,0.00,,,0.04,WUHU216HW,2013-03-29 06:42:00,
2013-03-29 07:47:00,60.8,52.1,29.94,SE,135,0.0,0.0,73,0.00,,,0.04,WUHU216HW,2013-03-29 06:47:00,
2013-03-29 07:52:00,61.3,53.3,29.94,SSW,203,0.8,0.8,75,0.00,,,0.04,WUHU216HW,2013-03-29 06:52:00,
2013-03-29 07:57:00,59.3,51.6,29.94,SSW,203,0.8,2.0,75,0.00,,,0.04,WUHU216HW,2013-03-29 06:57:00,
2013-03-29 08:02:00,58.8,51.0,29.94,South,180,0.0,2.0,75,0.00,,,0.04,WUHU216HW,2013-03-29 07:02:00,
2013-03-29 08:07:00,59.5,51.6,29.94,SSE,158,0.0,1.3,75,0.00,,,0.04,WUHU216HW,2013-03-29 07:07:00,
2013-03-29 08:12:00,59.1,51.2,29.94,SSW,203,2.9,2.9,75,0.00,,,0.04,WUHU216HW,2013-03-29 07:12:00,
2013-03-29 08:17:00,59.1,51.2,29.94,SW,216,2.0,2.9,75,0.00,,,0.04,WUHU216HW,2013-03-29 07:17:00,
2013-03-29 08:21:00,59.1,51.2,29.94,SW,225,3.8,3.8,75,0.00,,,0.04,WUHU216HW,2013-03-29 07:21:00,
2013-03-29 08:26:00,59.5,51.2,29.94,South,180,0.0,3.8,74,0.00,,,0.04,WUHU216HW,2013-03-29 07:26:00,
2013-03-29 08:32:00,60.4,52.5,29.94,SSE,158,0.0,1.7,75,0.00,,,0.04,WUHU216HW,2013-03-29 07:32:00,
2013-03-29 08:37:00,61.8,53.8,29.94,SSE,158,0.0,1.3,75,0.00,,,0.04,WUHU216HW,2013-03-29 07:37:00,
2013-03-29 08:42:00,64.2,56.1,29.94,ESE,113,0.0,1.1,75,0.00,,,0.04,WUHU216HW,2013-03-29 07:42:00,
2013-03-29 08:47:00,64.7,54.8,29.94,WNW,293,0.0,0.0,70,0.00,,,0.04,WUHU216HW,2013-03-29 07:47:00,
2013-03-29 08:52:00,63.6,53.7,29.94,West,270,1.5,1.5,70,0.00,,,0.04,WUHU216HW,2013-03-29 07:52:00,
2013-03-29 08:57:00,63.1,53.9,29.94,SSE,158,2.4,2.4,72,0.00,,,0.04,WUHU216HW,2013-03-29 07:57:00,
2013-03-29 09:02:00,63.6,54.1,29.94,East,90,0.0,2.4,71,0.00,,,0.04,WUHU216HW,2013-03-29 08:02:00,
2013-03-29 09:07:00,65.1,54.5,29.94,NE,45,0.0,1.5,69,0.00,,,0.04,WUHU216HW,2013-03-29 08:07:00,
2013-03-29 09:12:00,64.9,54.1,29.93,SE,135,0.0,1.3,68,0.00,,,0.04,WUHU216HW,2013-03-29 08:12:00,
2013-03-29 09:17:00,66.0,55.1,29.93,SSE,158,0.0,0.0,68,0.00,,,0.04,WUHU216HW,2013-03-29 08:17:00,
2013-03-29 09:22:00,66.3,55.0,29.93,West,270,1.5,1.5,67,0.00,,,0.04,WUHU216HW,2013-03-29 08:22:00,
2013-03-29 09:27:00,65.4,53.3,29.94,NW,315,2.4,3.8,65,0.00,,,0.04,WUHU216HW,2013-03-29 08:27:00,
2013-03-29 09:32:00,65.4,54.0,29.93,ESE,113,2.2,2.4,67,0.00,,,0.04,WUHU216HW,2013-03-29 08:32:00,
2013-03-29 09:37:00,65.8,53.2,29.93,NE,45,2.4,2.9,64,0.00,,,0.04,WUHU216HW,2013-03-29 08:37:00,
2013-03-29 09:42:00,66.0,53.4,29.93,South,180,2.4,2.9,64,0.00,,,0.04,WUHU216HW,2013-03-29 08:42:00,
2013-03-29 09:47:00,66.3,53.7,29.93,East,90,1.5,4.6,64,0.00,,,0.04,WUHU216HW,2013-03-29 08:47:00,
2013-03-29 09:52:00,66.5,53.1,29.93,SW,218,5.6,7.3,62,0.00,,,0.04,WUHU216HW,2013-03-29 08:52:00,
2013-03-29 09:57:00,66.0,52.6,29.93,South,180,5.3,11.8,62,0.00,,,0.04,WUHU216HW,2013-03-29 08:57:00,
2013-03-29 10:02:00,65.8,51.6,29.93,SSE,158,6.0,11.8,60,0.00,,,0.04,WUHU216HW,2013-03-29 09:02:00,
2013-03-29 10:07:00,66.5,52.3,29.93,WSW,248,8.2,8.9,60,0.00,,,0.04,WUHU216HW,2013-03-29 09:07:00,
2013-03-29 10:12:00,66.7,52.4,29.92,South,170,10.0,11.1,60,0.00,,,0.04,WUHU216HW,2013-03-29 09:12:00,
2013-03-29 10:17:00,66.3,52.1,29.93,South,180,10.7,11.1,60,0.00,,,0.04,WUHU216HW,2013-03-29 09:17:00,
2013-03-29 10:22:00,66.3,52.1,29.93,South,190,8.9,12.3,60,0.00,,,0.04,WUHU216HW,2013-03-29 09:22:00,
2013-03-29 10:27:00,66.3,52.1,29.92,WSW,248,2.7,12.3,60,0.00,,,0.04,WUHU216HW,2013-03-29 09:27:00,
2013-03-29 10:32:00,66.7,51.9,29.92,South,180,8.4,12.0,59,0.00,,,0.04,WUHU216HW,2013-03-29 09:32:00,
2013-03-29 10:37:00,66.9,52.1,29.92,SSW,193,6.6,12.0,59,0.00,,,0.04,WUHU216HW,2013-03-29 09:37:00,
2013-03-29 10:42:00,67.1,52.7,29.92,SSW,213,7.0,11.1,60,0.00,,,0.04,WUHU216HW,2013-03-29 09:42:00,
2013-03-29 10:48:00,67.2,51.9,29.92,South,180,8.9,11.1,58,0.00,,,0.04,WUHU216HW,2013-03-29 09:48:00,
2013-03-29 10:52:00,67.1,51.8,29.92,SSW,203,5.3,10.5,58,0.00,,,0.04,WUHU216HW,2013-03-29 09:52:00,
2013-03-29 10:57:00,67.1,52.3,29.92,SSW,203,6.3,10.5,59,0.00,,,0.04,WUHU216HW,2013-03-29 09:57:00,
2013-03-29 11:02:00,67.1,51.8,29.91,SSE,167,4.8,9.1,58,0.00,,,0.04,WUHU216HW,2013-03-29 10:02:00,
2013-03-29 11:08:00,67.8,52.4,29.91,South,180,5.1,9.1,57,0.00,,,0.04,WUHU216HW,2013-03-29 10:08:00,
2013-03-29 11:13:00,67.8,51.9,29.91,West,270,6.9,6.9,57,0.00,,,0.04,WUHU216HW,2013-03-29 10:13:00,
2013-03-29 11:18:00,67.2,51.0,29.91,WSW,248,11.6,14.9,56,0.00,,,0.04,WUHU216HW,2013-03-29 10:18:00,
2013-03-29 11:23:00,66.7,50.6,29.91,South,180,9.1,14.9,57,0.00,,,0.04,WUHU216HW,2013-03-29 10:23:00,
2013-03-29 11:28:00,67.2,51.0,29.91,West,270,4.6,9.1,56,0.00,,,0.04,WUHU216HW,2013-03-29 10:28:00,
2013-03-29 11:33:00,68.1,51.8,29.91,SW,225,7.8,7.8,56,0.00,,,0.04,WUHU216HW,2013-03-29 10:33:00,
2013-03-29 11:38:00,68.3,51.5,29.91,SSW,203,6.9,9.8,55,0.00,,,0.04,WUHU216HW,2013-03-29 10:38:00,
2013-03-29 11:43:00,68.5,51.1,29.91,SW,225,4.6,9.8,54,0.00,,,0.04,WUHU216HW,2013-03-29 10:43:00,
2013-03-29 11:48:00,68.9,51.0,29.91,SW,225,6.4,7.6,53,0.00,,,0.04,WUHU216HW,2013-03-29 10:48:00,
2013-03-29 11:54:00,68.5,50.6,29.91,South,189,12.5,14.5,53,0.00,,,0.04,WUHU216HW,2013-03-29 10:54:00,
2013-03-29 11:59:00,68.3,50.0,29.91,South,180,12.0,14.5,52,0.00,,,0.04,WUHU216HW,2013-03-29 10:59:00,
2013-03-29 12:04:00,68.5,50.1,29.91,SW,225,9.1,12.0,52,0.00,,,0.04,WUHU216HW,2013-03-29 11:04:00,
2013-03-29 12:09:00,68.3,50.5,29.91,WSW,248,6.9,10.5,53,0.00,,,0.04,WUHU216HW,2013-03-29 11:09:00,
2013-03-29 12:14:00,68.3,50.0,29.91,South,170,3.4,12.0,52,0.00,,,0.04,WUHU216HW,2013-03-29 11:14:00,
2013-03-29 12:19:00,68.1,50.3,29.91,WSW,248,4.9,12.0,53,0.00,,,0.04,WUHU216HW,2013-03-29 11:19:00,
2013-03-29 12:24:00,68.1,50.3,29.90,SSE,151,7.1,12.9,53,0.00,,,0.04,WUHU216HW,2013-03-29 11:24:00,
2013-03-29 12:29:00,68.5,50.1,29.90,SSW,201,12.6,15.8,52,0.00,,,0.04,WUHU216HW,2013-03-29 11:29:00,
2013-03-29 12:34:00,68.7,50.8,29.91,SSW,203,5.1,15.8,53,0.00,,,0.04,WUHU216HW,2013-03-29 11:34:00,
2013-03-29 12:39:00,68.5,50.6,29.90,SW,225,9.8,11.1,53,0.00,,,0.04,WUHU216HW,2013-03-29 11:39:00,
2013-03-29 12:44:00,68.5,50.1,29.91,West,270,10.5,11.8,53,0.00,,,0.04,WUHU216HW,2013-03-29 11:44:00,
2013-03-29 12:49:00,68.7,50.3,29.90,WSW,237,11.8,12.0,52,0.00,,,0.04,WUHU216HW,2013-03-29 11:49:00,
2013-03-29 12:54:00,69.0,50.7,29.90,SSW,203,8.0,12.0,52,0.00,,,0.04,WUHU216HW,2013-03-29 11:54:00,
2013-03-29 12:59:00,69.0,50.1,29.90,SW,225,14.9,14.9,51,0.00,,,0.04,WUHU216HW,2013-03-29 11:59:00,
2013-03-29 13:04:00,68.7,49.8,29.90,SSW,203,8.9,14.9,51,0.00,,,0.04,WUHU216HW,2013-03-29 12:04:00,
2013-03-29 13:09:00,68.3,50.0,29.90,SSW,203,10.0,19.2,52,0.00,,,0.04,WUHU216HW,2013-03-29 12:09:00,
2013-03-29 13:14:00,69.0,50.7,29.90,SW,225,15.2,19.2,52,0.00,,,0.04,WUHU216HW,2013-03-29 12:14:00,
2013-03-29 13:19:00,69.4,50.0,29.89,SW,225,11.4,15.2,51,0.00,,,0.04,WUHU216HW,2013-03-29 12:19:00,
2013-03-29 13:24:00,69.4,50.0,29.90,SW,235,13.3,15.2,50,0.00,,,0.04,WUHU216HW,2013-03-29 12:24:00,
2013-03-29 13:29:00,68.3,49.5,29.90,WSW,248,13.1,15.6,51,0.00,,,0.04,WUHU216HW,2013-03-29 12:29:00,
2013-03-29 13:34:00,68.9,50.5,29.90,SW,225,5.3,15.6,52,0.00,,,0.04,WUHU216HW,2013-03-29 12:34:00,
2013-03-29 13:39:00,69.0,49.7,29.89,South,180,9.8,12.0,50,0.00,,,0.04,WUHU216HW,2013-03-29 12:39:00,
2013-03-29 13:44:00,69.2,49.8,29.89,SW,214,8.3,13.6,50,0.00,,,0.04,WUHU216HW,2013-03-29 12:44:00,
2013-03-29 13:49:00,69.4,50.5,29.89,SW,225,10.2,14.0,51,0.00,,,0.04,WUHU216HW,2013-03-29 12:49:00,
2013-03-29 13:54:00,68.9,49.5,29.89,SW,225,9.8,15.2,50,0.00,,,0.04,WUHU216HW,2013-03-29 12:54:00,
2013-03-29 13:59:00,68.1,49.3,29.89,SW,225,11.1,15.2,51,0.00,,,0.04,WUHU216HW,2013-03-29 12:59:00,
2013-03-29 14:04:00,68.3,49.5,29.89,SSW,203,3.8,11.1,51,0.00,,,0.04,WUHU216HW,2013-03-29 13:04:00,
2013-03-29 14:09:00,68.7,49.8,29.89,WSW,248,4.6,13.1,51,0.00,,,0.04,WUHU216HW,2013-03-29 13:09:00,
2013-03-29 14:14:00,68.1,49.3,29.89,SW,230,4.9,15.8,51,0.00,,,0.04,WUHU216HW,2013-03-29 13:14:00,
2013-03-29 14:19:00,68.1,49.3,29.89,SW,217,13.3,17.0,51,0.00,,,0.04,WUHU216HW,2013-03-29 13:19:00,
2013-03-29 14:24:00,67.8,49.5,29.89,SSW,210,5.1,17.0,52,0.00,,,0.04,WUHU216HW,2013-03-29 13:24:00,
2013-03-29 14:29:00,67.4,49.3,29.89,WSW,245,5.9,10.7,52,0.00,,,0.04,WUHU216HW,2013-03-29 13:29:00,
2013-03-29 14:34:00,67.2,50.0,29.89,West,270,9.1,10.9,54,0.00,,,0.04,WUHU216HW,2013-03-29 13:34:00,
2013-03-29 14:39:00,67.2,50.0,29.89,SW,225,8.9,10.9,54,0.00,,,0.04,WUHU216HW,2013-03-29 13:39:00,
2013-03-29 14:44:00,66.9,49.2,29.89,SSW,213,12.0,13.1,53,0.00,,,0.04,WUHU216HW,2013-03-29 13:44:00,
2013-03-29 14:49:00,66.3,50.3,29.89,SSW,203,6.4,13.1,55,0.00,,,0.04,WUHU216HW,2013-03-29 13:49:00,
2013-03-29 14:54:00,66.7,50.0,29.88,SSW,203,5.3,16.3,55,0.00,,,0.04,WUHU216HW,2013-03-29 13:54:00,
2013-03-29 14:59:00,66.9,50.1,29.88,SW,225,16.1,16.3,55,0.00,,,0.04,WUHU216HW,2013-03-29 13:59:00,
2013-03-29 15:04:00,66.7,50.0,29.88,SW,230,6.2,16.1,55,0.00,,,0.04,WUHU216HW,2013-03-29 14:04:00,
2013-03-29 15:09:00,66.7,50.0,29.88,South,180,4.6,11.1,55,0.00,,,0.04,WUHU216HW,2013-03-29 14:09:00,
2013-03-29 15:14:00,66.9,50.1,29.89,SSW,203,10.5,10.5,55,0.00,,,0.04,WUHU216HW,2013-03-29 14:14:00,
2013-03-29 15:19:00,66.5,50.0,29.89,SSW,203,6.0,10.5,55,0.00,,,0.04,WUHU216HW,2013-03-29 14:19:00,
2013-03-29 15:24:00,66.0,49.8,29.88,SSW,203,6.0,15.2,56,0.00,,,0.04,WUHU216HW,2013-03-29 14:24:00,
2013-03-29 15:29:00,66.0,50.3,29.88,SSW,203,4.0,15.2,57,0.00,,,0.04,WUHU216HW,2013-03-29 14:29:00,
2013-03-29 15:34:00,66.0,49.8,29.88,SW,225,9.3,9.3,56,0.00,,,0.04,WUHU216HW,2013-03-29 14:34:00,
2013-03-29 15:39:00,66.0,49.8,29.87,South,186,8.0,11.8,56,0.00,,,0.04,WUHU216HW,2013-03-29 14:39:00,
2013-03-29 15:44:00,66.0,49.8,29.88,SSW,203,6.0,11.8,56,0.00,,,0.04,WUHU216HW,2013-03-29 14:44:00,
2013-03-29 15:49:00,66.2,50.0,29.88,SSW,203,2.4,10.2,56,0.00,,,0.04,WUHU216HW,2013-03-29 14:49:00,
2013-03-29 15:54:00,66.3,49.7,29.87,SSW,203,8.2,8.2,55,0.00,,,0.04,WUHU216HW,2013-03-29 14:54:00,
2013-03-29 15:59:00,66.2,49.5,29.87,SSW,203,4.0,8.2,55,0.00,,,0.04,WUHU216HW,2013-03-29 14:59:00,
2013-03-29 16:04:00,66.2,49.5,29.87,SSW,203,7.6,9.1,55,0.00,,,0.04,WUHU216HW,2013-03-29 15:04:00,
2013-03-29 16:09:00,66.0,49.3,29.87,SSW,209,5.7,9.1,55,0.00,,,0.04,WUHU216HW,2013-03-29 15:09:00,
2013-03-29 16:14:00,66.2,49.5,29.87,SW,225,4.9,8.5,55,0.00,,,0.04,WUHU216HW,2013-03-29 15:14:00,
2013-03-29 16:19:00,66.5,49.3,29.87,SSW,193,6.6,8.9,54,0.00,,,0.04,WUHU216HW,2013-03-29 15:19:00,
2013-03-29 16:24:00,66.7,50.0,29.87,SSW,203,12.7,12.7,55,0.00,,,0.04,WUHU216HW,2013-03-29 15:24:00,
2013-03-29 16:29:00,66.7,49.5,29.87,SSW,203,13.1,13.1,54,0.00,,,0.04,WUHU216HW,2013-03-29 15:29:00,
2013-03-29 16:34:00,66.3,48.4,29.87,SSW,203,5.9,13.1,52,0.00,,,0.04,WUHU216HW,2013-03-29 15:34:00,
2013-03-29 16:39:00,66.3,48.7,29.87,South,187,5.4,12.0,53,0.00,,,0.04,WUHU216HW,2013-03-29 15:39:00,
2013-03-29 16:44:00,66.3,48.7,29.87,SW,216,8.6,10.2,53,0.00,,,0.04,WUHU216HW,2013-03-29 15:44:00,
2013-03-29 16:49:00,66.0,48.8,29.87,South,180,5.3,10.2,54,0.00,,,0.04,WUHU216HW,2013-03-29 15:49:00,
2013-03-29 16:54:00,66.0,49.8,29.87,WSW,239,4.2,7.3,56,0.00,,,0.04,WUHU216HW,2013-03-29 15:54:00,
2013-03-29 16:59:00,66.3,50.1,29.87,SSW,192,1.4,7.1,56,0.00,,,0.04,WUHU216HW,2013-03-29 15:59:00,
2013-03-29 17:04:00,66.3,50.1,29.87,WSW,248,6.4,6.4,56,0.00,,,0.04,WUHU216HW,2013-03-29 16:04:00,
2013-03-29 17:09:00,66.0,50.3,29.87,SSE,165,4.4,6.4,57,0.00,,,0.04,WUHU216HW,2013-03-29 16:09:00,
2013-03-29 17:14:00,65.8,50.1,29.87,SW,225,6.2,6.7,57,0.00,,,0.04,WUHU216HW,2013-03-29 16:14:00,
2013-03-29 17:19:00,65.4,49.8,29.87,SSW,208,3.4,6.7,57,0.00,,,0.04,WUHU216HW,2013-03-29 16:19:00,
2013-03-29 17:24:00,65.3,48.8,29.87,SW,219,8.2,11.8,55,0.00,,,0.04,WUHU216HW,2013-03-29 16:24:00,
2013-03-29 17:29:00,65.1,48.9,29.87,SSE,158,4.4,11.8,56,0.00,,,0.04,WUHU216HW,2013-03-29 16:29:00,
2013-03-29 17:34:00,64.9,49.2,29.87,South,172,5.2,8.5,57,0.00,,,0.04,WUHU216HW,2013-03-29 16:34:00,
2013-03-29 17:40:00,65.1,49.9,29.87,SSE,151,3.2,8.2,58,0.00,,,0.04,WUHU216HW,2013-03-29 16:40:00,
2013-03-29 17:45:00,65.1,49.4,29.87,SSE,158,9.1,9.1,57,0.00,,,0.04,WUHU216HW,2013-03-29 16:45:00,
2013-03-29 17:50:00,64.7,49.5,29.87,SSE,147,2.3,10.5,58,0.00,,,0.04,WUHU216HW,2013-03-29 16:50:00,
2013-03-29 17:55:00,64.5,49.3,29.87,South,180,12.9,12.9,58,0.00,,,0.04,WUHU216HW,2013-03-29 16:55:00,
2013-03-29 18:00:00,64.0,49.3,29.87,South,180,8.9,12.9,59,0.00,,,0.04,WUHU216HW,2013-03-29 17:00:00,
2013-03-29 18:05:00,63.6,49.5,29.87,South,180,4.2,8.9,60,0.00,,,0.04,WUHU216HW,2013-03-29 17:05:00,
2013-03-29 18:10:00,63.5,49.3,29.87,South,173,3.4,7.1,60,0.00,,,0.04,WUHU216HW,2013-03-29 17:10:00,
2013-03-29 18:15:00,63.1,49.4,29.87,SSW,203,2.4,5.3,61,0.00,,,0.04,WUHU216HW,2013-03-29 17:15:00,
2013-03-29 18:20:00,62.9,50.1,29.87,ESE,119,3.5,7.3,63,0.00,,,0.04,WUHU216HW,2013-03-29 17:20:00,
2013-03-29 18:25:00,62.7,50.3,29.87,South,180,2.4,7.3,64,0.00,,,0.04,WUHU216HW,2013-03-29 17:25:00,
2013-03-29 18:30:00,62.4,50.0,29.87,ENE,68,2.3,5.1,64,0.00,,,0.04,WUHU216HW,2013-03-29 17:30:00,
2013-03-29 18:35:00,62.4,49.6,29.87,South,180,6.7,6.7,63,0.00,,,0.04,WUHU216HW,2013-03-29 17:35:00,
2013-03-29 18:40:00,62.4,49.2,29.87,SSE,162,2.7,6.7,62,0.00,,,0.04,WUHU216HW,2013-03-29 17:40:00,
2013-03-29 18:45:00,62.4,50.0,29.87,West,270,4.6,4.6,64,0.00,,,0.04,WUHU216HW,2013-03-29 17:45:00,
2013-03-29 18:50:00,62.0,50.1,29.88,WSW,248,0.0,4.6,65,0.00,,,0.04,WUHU216HW,2013-03-29 17:50:00,
2013-03-29 18:55:00,61.7,50.6,29.88,NNW,328,2.2,4.6,67,0.00,,,0.04,WUHU216HW,2013-03-29 17:55:00,
2013-03-29 19:00:00,61.1,51.4,29.88,North,0,3.4,4.6,70,0.00,,,0.04,WUHU216HW,2013-03-29 18:00:00,
2013-03-29 19:05:00,60.6,50.9,29.88,NE,45,4.4,4.4,70,0.00,,,0.04,WUHU216HW,2013-03-29 18:05:00,
2013-03-29 19:10:00,60.0,50.9,29.88,NE,45,2.4,4.4,71,0.00,,,0.04,WUHU216HW,2013-03-29 18:10:00,
2013-03-29 19:15:00,59.9,50.9,29.89,ESE,113,0.0,5.1,72,0.00,,,0.04,WUHU216HW,2013-03-29 18:15:00,
2013-03-29 19:20:00,59.5,50.5,29.89,East,90,0.0,5.1,72,0.00,,,0.04,WUHU216HW,2013-03-29 18:20:00,
2013-03-29 19:25:00,59.5,50.5,29.89,East,90,0.6,2.4,73,0.00,,,0.04,WUHU216HW,2013-03-29 18:25:00,
2013-03-29 19:30:00,59.5,50.9,29.89,NNE,23,3.8,5.1,73,0.00,,,0.04,WUHU216HW,2013-03-29 18:30:00,
2013-03-29 19:35:00,59.5,51.2,29.90,North,0,2.2,7.1,74,0.00,,,0.04,WUHU216HW,2013-03-29 18:35:00,
2013-03-29 19:40:00,59.3,51.2,29.90,NE,45,3.3,7.1,74,0.00,,,0.04,WUHU216HW,2013-03-29 18:40:00,
2013-03-29 19:45:00,59.3,51.0,29.89,ENE,68,2.4,3.3,74,0.00,,,0.04,WUHU216HW,2013-03-29 18:45:00,
2013-03-29 19:50:00,59.0,50.7,29.89,ENE,68,0.0,3.3,74,0.00,,,0.04,WUHU216HW,2013-03-29 18:50:00,
2013-03-29 19:55:00,58.8,50.9,29.89,NE,45,0.8,2.9,75,0.00,,,0.04,WUHU216HW,2013-03-29 18:55:00,
2013-03-29 20:00:00,58.6,50.7,29.89,NE,45,0.0,2.0,75,0.00,,,0.04,WUHU216HW,2013-03-29 19:00:00,
2013-03-29 20:05:00,58.4,50.5,29.89,NW,315,0.6,1.3,75,0.00,,,0.04,WUHU216HW,2013-03-29 19:05:00,
2013-03-29 20:11:00,58.4,50.5,29.89,NW,315,0.6,0.8,75,0.00,,,0.04,WUHU216HW,2013-03-29 19:11:00,
2013-03-29 20:15:00,58.2,50.3,29.89,NE,45,2.2,2.2,75,0.00,,,0.04,WUHU216HW,2013-03-29 19:15:00,
2013-03-29 20:20:00,58.2,50.3,29.89,NNW,338,0.0,2.2,75,0.00,,,0.04,WUHU216HW,2013-03-29 19:20:00,
2013-03-29 20:25:00,58.1,50.1,29.89,SW,225,0.0,0.0,75,0.00,,,0.04,WUHU216HW,2013-03-29 19:25:00,
2013-03-29 20:31:00,57.9,50.0,29.88,WSW,248,0.0,2.9,75,0.00,,,0.04,WUHU216HW,2013-03-29 19:31:00,
2013-03-29 20:36:00,57.9,50.0,29.88,South,180,1.7,2.9,75,0.00,,,0.04,WUHU216HW,2013-03-29 19:36:00,
2013-03-29 20:41:00,57.9,50.0,29.87,SSW,203,1.5,2.4,75,0.00,,,0.04,WUHU216HW,2013-03-29 19:41:00,
2013-03-29 20:46:00,58.2,50.1,29.87,South,180,6.2,6.2,75,0.00,,,0.04,WUHU216HW,2013-03-29 19:46:00,
2013-03-29 20:51:00,58.8,50.5,29.87,SSW,203,3.5,7.3,74,0.00,,,0.04,WUHU216HW,2013-03-29 19:51:00,
2013-03-29 20:56:00,59.1,50.5,29.87,WSW,248,3.1,7.3,73,0.00,,,0.04,WUHU216HW,2013-03-29 19:56:00,
2013-03-29 21:01:00,59.1,50.9,29.87,South,180,1.5,5.3,74,0.00,,,0.04,WUHU216HW,2013-03-29 20:01:00,
2013-03-29 21:06:00,58.8,50.5,29.88,South,180,4.2,5.8,74,0.00,,,0.04,WUHU216HW,2013-03-29 20:06:00,
2013-03-29 21:11:00,58.8,50.9,29.88,SSW,203,4.8,8.0,75,0.00,,,0.04,WUHU216HW,2013-03-29 20:11:00,
2013-03-29 21:16:00,58.6,50.7,29.89,SSW,203,2.2,8.0,75,0.00,,,0.04,WUHU216HW,2013-03-29 20:16:00,
2013-03-29 21:21:00,58.4,50.5,29.88,SW,225,5.8,8.9,75,0.00,,,0.04,WUHU216HW,2013-03-29 20:21:00,
2013-03-29 21:26:00,58.2,50.3,29.88,WSW,248,6.4,8.9,75,0.00,,,0.04,WUHU216HW,2013-03-29 20:26:00,
2013-03-29 21:31:00,57.9,50.0,29.89,SW,225,7.6,7.6,75,0.00,,,0.04,WUHU216HW,2013-03-29 20:31:00,
2013-03-29 21:36:00,57.9,50.0,29.89,SW,234,4.6,7.6,75,0.00,,,0.04,WUHU216HW,2013-03-29 20:36:00,
2013-03-29 21:41:00,57.7,49.8,29.88,SSW,201,2.8,6.4,75,0.00,,,0.04,WUHU216HW,2013-03-29 20:41:00,
2013-03-29 21:46:00,57.7,49.8,29.88,SW,235,4.1,4.6,75,0.00,,,0.04,WUHU216HW,2013-03-29 20:46:00,
2013-03-29 21:51:00,57.5,49.8,29.89,SW,225,2.9,5.3,75,0.00,,,0.04,WUHU216HW,2013-03-29 20:51:00,
2013-03-29 21:56:00,57.5,49.6,29.90,SW,225,3.1,5.3,75,0.00,,,0.04,WUHU216HW,2013-03-29 20:56:00,
2013-03-29 22:01:00,57.3,49.4,29.90,SW,225,2.4,5.1,75,0.00,,,0.04,WUHU216HW,2013-03-29 21:01:00,
2013-03-29 22:06:00,57.3,49.4,29.90,North,0,3.5,3.5,75,0.00,,,0.04,WUHU216HW,2013-03-29 21:06:00,
2013-03-29 22:11:00,56.4,48.5,29.91,East,90,1.3,3.8,75,0.00,,,0.04,WUHU216HW,2013-03-29 21:11:00,
2013-03-29 22:16:00,56.3,47.7,29.92,NE,45,0.0,3.8,73,0.00,,,0.04,WUHU216HW,2013-03-29 21:16:00,
2013-03-29 22:21:00,56.3,47.7,29.92,NNW,338,0.0,1.7,73,0.00,,,0.04,WUHU216HW,2013-03-29 21:21:00,
2013-03-29 22:26:00,56.3,47.3,29.91,SSE,158,0.0,1.3,72,0.00,,,0.04,WUHU216HW,2013-03-29 21:26:00,
2013-03-29 22:31:00,56.3,47.3,29.91,SSE,158,0.0,1.3,72,0.00,,,0.04,WUHU216HW,2013-03-29 21:31:00,
2013-03-29 22:36:00,56.4,47.1,29.91,ESE,113,0.0,1.7,71,0.00,,,0.04,WUHU216HW,2013-03-29 21:36:00,
2013-03-29 22:41:00,56.4,47.0,29.91,ESE,113,0.0,1.7,71,0.00,,,0.04,WUHU216HW,2013-03-29 21:41:00,
2013-03-29 22:46:00,56.3,47.0,29.90,ESE,113,1.1,2.2,71,0.00,,,0.04,WUHU216HW,2013-03-29 21:46:00,
2013-03-29 22:51:00,56.3,47.0,29.89,SE,135,0.0,2.2,71,0.00,,,0.04,WUHU216HW,2013-03-29 21:51:00,
2013-03-29 22:56:00,56.3,46.6,29.89,SSE,158,1.1,1.1,70,0.00,,,0.04,WUHU216HW,2013-03-29 21:56:00,
2013-03-29 23:01:00,56.1,46.5,29.88,ESE,118,2.8,3.3,70,0.00,,,0.04,WUHU216HW,2013-03-29 22:01:00,
2013-03-29 23:06:00,56.1,46.8,29.89,SW,225,1.5,3.3,70,0.00,,,0.04,WUHU216HW,2013-03-29 22:06:00,
2013-03-29 23:11:00,56.3,46.6,29.88,West,270,0.0,2.4,70,0.00,,,0.04,WUHU216HW,2013-03-29 22:11:00,
2013-03-29 23:16:00,56.4,46.8,29.88,SW,225,1.3,2.6,70,0.00,,,0.04,WUHU216HW,2013-03-29 22:16:00,
2013-03-29 23:21:00,56.4,46.8,29.88,South,180,1.5,2.6,70,0.00,,,0.04,WUHU216HW,2013-03-29 22:21:00,
2013-03-29 23:26:00,56.4,46.8,29.88,South,180,0.0,2.9,70,0.00,,,0.04,WUHU216HW,2013-03-29 22:26:00,
2013-03-29 23:31:00,56.4,47.1,29.87,South,180,1.7,3.1,71,0.00,,,0.04,WUHU216HW,2013-03-29 22:31:00,
2013-03-29 23:36:00,56.4,47.5,29.87,SE,133,1.8,3.1,72,0.00,,,0.04,WUHU216HW,2013-03-29 22:36:00,
2013-03-29 23:41:00,56.8,48.3,29.87,SW,225,2.6,2.6,73,0.00,,,0.04,WUHU216HW,2013-03-29 22:41:00,
2013-03-29 23:46:00,57.2,48.2,29.87,SW,225,4.0,6.9,72,0.00,,,0.04,WUHU216HW,2013-03-29 22:46:00,
2013-03-29 23:51:00,57.0,47.3,29.87,SSE,158,3.1,6.9,70,0.00,,,0.04,WUHU216HW,2013-03-29 22:51:00,
2013-03-29 23:56:00,56.8,47.8,29.87,SSE,150,2.3,3.1,72,0.00,,,0.04,WUHU216HW,2013-03-29 22:56:00,